Temperature
19 18 18 18 18 18 17 17 17 17 17 16 16 16 16 15 15 15 15 15 14 14 14 14 14 14 14 14 14 14 14 14 14 14 14 14 14 14 13 13 13 13 13
18 18 18 18 18 18 17 17 17 17 17 16 16 16 16 15 15 15 15 14 14 14 14 14 14 14 14 14 14 14 14 13 13 13 13 13 13 13 13 13 13 13 13
19 18 18 18 18 18 17 17 17 17 17 16 16 16 16 15 15 15 15 14 14 14 14 14 14 14 14 13 13 13 13 13 13 13 13 13 13 13 13 13 13 13 13
19 18 18 18 18 18 17 17 17 17 16 16 16 16 16 15 15 15 15 14 14 14 14 14 13 13 13 13 13 13 13 13 13 13 13 13 13 13 12 12 13 13 13
19 19 18 18 18 18 17 17 17 17 16 16 16 16 16 15 15 15 14 14 14 14 14 14 13 13 13 13 13 13 13 13 13 13 13 13 13 13 13 12 12 12 12
19 18 18 18 18 17 17 17 17 17 16 16 16 16 15 15 15 15 14 14 14 14 14 14 13 13 13 13 13 13 13 13 13 13 13 13 13 13 13 12 12 12 12
18 18 18 18 17 17 17 17 17 16 16 16 16 15 15 15 15 15 14 14 14 14 14 14 13 13 13 13 13 13 13 13 13 13 13 12 12 12 12 12 12 12 12
18 18 18 18 17 17 17 17 16 16 16 16 15 15 15 15 14 14 14 14 14 14 14 13 13 13 13 13 13 13 13 13 12 12 12 12 12 12 12 12 12 12 12
17 17 17 17 17 17 17 17 16 16 16 15 15 15 15 14 14 14 14 14 14 14 13 13 13 13 13 13 13 13 12 12 12 12 12 12 12 12 12 12 12 12 11
17 17 17 17 17 16 16 16 16 16 15 15 15 15 14 14 14 14 14 13 13 13 13 13 13 13 13 13 13 12 12 12 12 12 12 12 12 12 12 12 12 12 11
17 17 17 16 16 16 16 16 15 15 15 15 14 14 14 14 14 14 13 13 13 13 13 13 13 13 12 12 12 12 12 12 12 12 12 12 12 12 11 11 11 11 11
17 16 16 16 16 16 15 15 15 15 14 14 14 14 14 14 14 13 13 13 13 13 13 12 12 12 12 12 12 12 12 12 12 12 12 12 12 11 11 11 11 11 11
16 16 16 16 16 15 15 15 15 14 14 14 14 14 14 13 13 13 13 13 12 12 12 12 12 12 12 12 12 12 12 12 12 12 12 12 11 11 11 11 11 11 11
16 16 15 15 15 15 15 15 14 14 14 14 13 13 13 13 13 13 12 12 12 12 12 12 12 11 11 11 11 11 11 11 11 11 11 11 11 11 11 11 11 11 11
15 15 15 15 15 15 14 14 14 14 13 13 13 13 13 13 12 12 12 12 12 11 11 11 11 11 11 11 11 11 11 11 11 11 11 11 11 11 11 11 11 11 11
15 15 15 15 15 14 14 14 14 13 13 13 13 12 12 12 12 12 12 12 11 11 11 11 11 11 11 11 11 11 11 11 11 11 11 11 10 10 10 10 10 10 10
15 15 15 15 14 14 14 14 13 13 13 12 12 12 12 12 12 11 11 11 11 11 10 10 10 10 10 10 10 10 10 10 10 10 10 10 10 10 10 10 10 10 10
15 15 14 14 14 14 14 13 13 13 12 12 12 12 12 11 11 11 11 11 10 10 10 10 10 10 10 10 10 10 10 10 10 10 10 10 10 10 10 10 10 9 9
15 14 14 14 14 13 13 13 13 12 12 12 12 11 11 11 11 11 10 10 10 10 10 10 9 9 9 9 9 9 9 9 9 9 9 9 9 9 9 9 9 9 9
14 14 14 13 13 13 13 13 12 12 12 12 11 11 11 11 10 10 10 10 10 10 9 9 9 9 9 9 9 9 9 9 9 9 9 9 8 8 8 8 8 8 8
14 13 13 13 13 12 12 12 12 12 12 11 11 11 10 10 10 10 10 10 9 9 9 9 9 9 8 8 8 8 8 8 8 8 8 8 8 8 8 8 8 8 8
13 13 13 12 12 12 12 12 11 11 11 11 11 10 10 10 10 10 9 9 9 9 9 9 8 8 8 8 8 8 7 7 7 7 8 8 8 8 8 7 7 7 7
13 12 12 12 12 11 11 11 11 11 11 10 10 10 10 10 9 9 9 9 9 9 8 8 8 8 8 7 7 7 7 7 7 7 7 7 7 7 7 7 7 7 7
12 12 12 11 11 11 11 11 11 10 10 10 10 10 9 9 9 9 8 8 8 8 8 8 8 7 7 7 7 7 7 7 7 7 7 7 7 7 6 6 6 6 6
12 11 11 11 11 10 10 10 10 10 10 10 9 9 9 9 8 8 8 8 8 7 7 7 7 7 7 7 7 7 6 6 6 6 6 6 6 6 6 6 6 5 5
11 11 11 10 10 10 10 10 10 9 9 9 9 9 8 8 8 8 7 7 7 7 7 7 7 7 6 6 6 6 6 6 6 6 6 6 6 6 6 5 5 5 5
Wind_Speed
7 7 7 7 6 5 5 5 5 4 5 3 3 3 2 1 1 2 3 4 4 4 5 3 3 3 3 2 2 2 3 2 2 3 3 4 4 3 2 2 1 1 1
5 6 6 6 7 7 6 6 6 5 5 4 3 3 3 2 2 1 2 3 4 4 4 4 2 2 2 2 2 2 2 1 2 2 2 3 4 4 3 2 2 2 1
9 8 7 7 7 7 7 7 7 6 6 5 4 3 3 2 2 1 0 1 3 3 3 3 3 2 2 2 1 2 2 1 1 1 3 2 2 2 3 2 2 2 2
8 8 8 8 8 8 7 7 8 7 6 6 6 6 4 3 3 2 1 1 2 2 3 3 3 2 2 2 1 2 2 2 0 1 0 2 3 2 1 3 3 3 1
9 8 8 9 8 7 7 7 7 6 5 6 7 6 4 3 2 2 2 1 0 1 2 3 2 2 2 2 1 1 1 2 2 1 1 1 1 2 2 1 3 3 2
8 7 6 6 5 5 5 6 6 6 6 6 6 7 6 5 4 3 2 1 1 1 1 2 2 2 1 2 2 2 2 2 2 1 2 2 2 2 2 2 2 2 3
7 6 6 5 5 6 6 6 7 6 6 6 6 6 6 6 7 5 4 3 2 2 3 2 2 2 2 2 2 2 1 2 2 2 2 2 2 2 3 3 1 1 3
5 6 6 6 6 6 6 7 7 6 6 6 6 5 5 4 4 5 4 4 4 4 3 3 3 3 3 2 2 1 2 2 2 2 2 2 2 2 3 3 3 0 2
4 5 4 4 5 5 5 7 7 6 6 6 5 5 5 5 4 4 4 3 3 3 2 3 2 2 2 2 2 2 2 2 2 2 3 2 2 2 2 3 3 4 2
3 3 4 4 3 4 4 4 6 6 5 5 6 5 4 4 4 3 3 3 3 3 2 2 3 3 3 2 2 2 2 2 2 2 2 2 1 1 2 2 2 3 4
4 3 3 3 3 3 4 3 3 4 4 4 4 4 3 3 3 3 4 3 3 2 3 3 3 3 3 3 3 3 3 3 2 2 2 2 2 1 1 1 2 2 3
3 3 3 4 4 4 3 3 2 3 3 4 4 4 3 3 3 3 3 3 3 3 3 3 2 3 3 3 3 4 3 4 4 3 3 3 2 2 2 2 2 2 3
3 3 2 3 3 4 3 3 3 3 3 3 4 3 3 3 3 3 3 2 3 3 2 2 2 2 3 3 3 4 4 4 5 5 4 4 3 3 2 3 3 3 3
4 3 2 2 2 3 3 3 3 3 3 3 4 4 4 4 4 3 3 2 2 2 2 2 3 3 3 3 3 3 3 4 4 4 5 5 5 5 4 4 4 3 3
3 4 3 3 2 2 2 3 2 2 3 3 3 4 3 3 3 3 2 2 2 2 2 2 2 2 2 2 2 3 3 3 3 3 4 4 5 6 5 4 4 3 3
3 2 2 2 3 3 3 3 3 3 3 3 3 3 2 2 2 3 3 2 2 2 1 2 2 2 2 2 2 2 2 2 3 3 3 4 3 4 4 5 4 5 4
3 3 3 3 4 4 4 4 4 3 3 3 3 3 3 2 2 2 2 3 3 2 2 2 2 2 3 3 3 3 3 2 3 3 3 3 3 3 3 3 3 3 4
3 3 3 3 3 3 3 3 3 3 3 3 3 3 3 3 2 2 3 3 2 2 2 3 2 2 3 3 3 3 3 3 3 4 4 4 4 3 3 2 2 2 3
4 4 3 3 2 3 3 3 3 3 3 3 4 4 4 4 3 3 3 3 2 2 2 2 2 2 3 4 3 2 1 2 3 4 3 3 4 4 3 2 2 2 3
2 2 2 1 2 2 2 3 3 4 5 5 5 4 4 4 4 4 4 2 3 3 3 2 3 3 3 3 2 1 1 2 3 3 3 4 5 6 4 3 2 3 3
2 2 2 2 3 3 3 3 2 4 5 4 4 3 3 4 4 3 3 2 2 2 2 2 2 3 3 3 3 2 1 2 3 3 3 4 6 6 5 4 4 5 4
1 1 2 2 2 3 4 3 4 4 2 2 3 3 3 3 2 2 2 2 2 2 2 2 2 2 3 3 3 3 3 2 2 3 3 4 5 5 4 4 5 4 2
2 1 2 2 2 2 4 4 4 2 1 2 2 2 2 2 2 2 2 1 2 2 2 2 2 3 3 3 4 4 4 4 3 3 5 5 4 4 3 4 4 3 2
2 1 1 2 2 3 3 4 3 2 2 2 3 2 2 2 2 2 2 2 2 2 2 3 3 3 3 3 2 2 3 4 3 3 3 3 4 2 2 2 1 2 2
2 2 2 3 3 3 3 2 2 3 2 2 3 3 3 3 2 1 2 3 4 4 4 4 4 3 4 5 4 3 3 3 3 1 1 1 1 1 1 1 1 1 2
2 2 2 2 3 3 3 2 2 3 3 2 3 3 2 2 2 1 1 3 3 4 4 5 4 4 5 5 4 5 4 4 2 0 1 2 2 3 2 2 2 2 2
Wind_Direction
190 170 168 163 158 154 149 151 148 153 146 135 129 121 128 120 86 89 105 103 102 109 109 108 101 94 95 99 94 88 68 41 36 53 20 4 11 31 32 36 57 65 95
181 175 170 164 167 169 165 157 161 160 160 159 155 150 148 147 150 103 92 103 109 115 117 118 122 108 99 84 77 82 83 26 46 102 74 13 356 358 7 12 34 22 54
182 183 180 177 171 174 176 171 172 168 166 154 131 113 88 70 66 65 113 108 128 125 120 130 131 129 123 129 129 127 124 115 359 101 136 138 221 310 333 348 359 4 21
179 177 183 183 183 186 180 172 171 167 166 156 149 150 152 165 193 185 187 175 137 136 136 144 141 144 140 150 167 139 137 138 181 342 62 162 162 152 315 330 337 347 355
175 176 184 187 186 181 174 170 166 166 167 164 161 158 161 172 167 158 155 168 182 151 152 158 146 150 163 175 174 138 132 152 167 174 161 100 80 112 148 286 322 335 323
171 169 170 170 173 170 166 162 160 167 168 163 161 162 165 167 157 166 176 193 237 243 207 178 159 170 184 190 189 177 155 165 160 161 158 156 152 172 159 192 277 303 309
162 158 158 164 169 172 173 166 162 166 169 165 168 173 173 173 175 181 188 191 202 224 230 200 190 195 205 191 168 162 177 184 178 181 182 184 198 179 161 155 199 295 307
146 157 172 174 175 175 174 171 172 172 170 173 182 182 177 176 186 187 185 194 204 215 211 194 195 204 201 193 170 165 203 194 197 199 186 185 207 185 175 166 157 115 328
146 155 152 159 171 172 174 172 170 168 175 180 181 183 181 181 189 191 188 199 211 210 198 199 198 206 204 198 177 189 211 193 201 203 201 206 218 195 194 174 168 160 191
142 148 152 161 162 165 166 160 162 169 172 176 181 183 185 183 182 180 194 201 213 209 194 204 205 215 217 209 188 201 211 182 213 212 198 220 224 202 184 172 171 164 169
160 163 169 168 153 127 123 131 147 156 166 177 182 176 182 178 174 182 197 201 200 195 198 207 210 218 221 213 199 211 200 190 215 215 196 216 209 198 207 180 164 166 159
157 156 158 148 141 139 138 147 150 156 175 180 172 168 171 169 172 186 197 190 192 198 198 201 209 225 227 222 214 219 211 203 210 217 203 222 216 210 216 202 202 198 186
144 129 125 150 163 163 164 167 170 173 174 165 163 168 176 181 185 192 201 201 200 204 202 197 211 229 236 235 231 222 219 218 217 213 211 221 209 221 221 214 220 222 214
157 150 155 167 177 175 179 179 188 181 166 166 169 178 192 194 198 195 190 200 195 195 207 215 223 227 235 239 241 234 229 230 231 224 219 218 214 220 218 222 223 217 209
165 168 176 185 173 166 180 185 193 195 175 165 181 200 202 197 194 194 191 192 186 198 206 211 239 245 242 252 252 239 237 235 237 239 235 230 227 227 218 222 214 201 198
181 190 184 184 185 188 196 191 191 197 175 172 197 199 179 175 192 203 198 194 201 208 198 207 222 248 271 284 257 243 240 235 234 246 256 254 242 243 241 230 214 197 197
180 186 200 208 206 198 192 196 198 185 168 182 195 194 187 192 209 210 197 206 216 210 212 226 223 239 264 274 267 246 231 230 242 249 256 264 263 252 241 247 237 222 221
194 204 213 219 222 203 197 199 187 178 178 191 207 206 200 208 209 194 201 213 210 212 219 231 235 245 277 277 273 256 231 232 246 249 246 246 248 242 232 231 242 244 251
200 206 207 203 202 198 191 168 181 186 189 205 212 212 201 199 198 205 216 217 203 215 219 222 231 246 276 287 280 263 248 257 263 260 256 249 247 253 232 215 232 266 287
200 189 180 163 192 217 171 159 189 199 210 216 214 207 197 193 201 213 219 212 201 213 215 225 230 233 256 293 300 278 244 266 274 278 265 256 257 260 234 212 214 242 264
195 168 160 182 214 203 159 171 195 227 226 212 201 199 203 200 202 204 202 206 209 209 219 232 249 245 251 277 284 278 244 245 265 274 274 264 256 256 238 225 222 238 238
202 173 178 219 222 187 166 188 224 243 223 183 189 203 212 212 205 190 200 200 192 193 219 233 268 276 273 270 275 276 272 268 251 260 265 265 263 257 247 239 242 241 218
216 208 191 213 240 208 184 199 232 226 173 172 210 225 223 222 198 187 193 202 198 201 223 219 242 273 284 283 286 279 279 279 271 262 268 267 262 257 249 247 245 224 186
207 194 169 201 237 235 217 211 212 174 156 185 205 206 204 225 226 205 200 204 214 222 231 231 241 255 270 274 278 278 281 288 287 286 287 285 270 253 254 271 247 204 196
211 188 190 211 232 230 228 221 193 164 168 190 197 205 207 206 217 230 229 229 229 221 219 229 228 237 257 261 260 256 260 261 263 291 330 329 306 273 269 256 239 220 206
202 196 207 220 232 224 230 228 200 180 181 199 201 201 197 193 186 195 319 318 279 261 243 237 234 247 254 267 268 272 273 275 266 183 256 261 248 238 237 239 248 242 233
Height
1522 1524 1525 1527 1528 1529 1530 1531 1532 1533 1534 1534 1535 1535 1535 1535 1536 1536 1536 1536 1536 1536 1536 1536 1536 1536 1536 1536 1536 1536 1536 1536 1535 1535 1535 1534 1534 1534 1534 1533 1533 1533 1532
1520 1522 1523 1525 1526 1527 1528 1530 1531 1531 1532 1533 1534 1534 1535 1535 1535 1535 1536 1536 1536 1536 1536 1536 1536 1536 1536 1536 1536 1536 1536 1536 1535 1535 1535 1535 1535 1534 1534 1533 1533 1533 1532
1516 1518 1520 1522 1523 1525 1526 1527 1529 1530 1531 1532 1533 1533 1534 1534 1534 1534 1535 1535 1535 1535 1535 1535 1535 1535 1535 1535 1535 1535 1535 1535 1535 1535 1535 1535 1534 1534 1534 1533 1533 1533 1532
1514 1516 1518 1519 1521 1522 1524 1525 1527 1528 1529 1530 1531 1531 1532 1532 1532 1533 1534 1534 1534 1534 1535 1535 1535 1535 1535 1535 1535 1535 1534 1534 1534 1534 1534 1535 1534 1534 1533 1533 1533 1532 1532
1512 1514 1515 1517 1519 1521 1522 1523 1525 1526 1527 1528 1529 1530 1530 1531 1532 1532 1533 1533 1533 1533 1533 1534 1534 1534 1534 1534 1534 1533 1533 1533 1533 1533 1533 1533 1533 1533 1533 1532 1532 1531 1531
1510 1512 1514 1516 1518 1520 1521 1522 1523 1524 1525 1526 1527 1528 1529 1529 1530 1531 1531 1531 1532 1532 1532 1532 1533 1533 1532 1532 1532 1532 1532 1532 1532 1532 1532 1532 1532 1531 1531 1531 1530 1530 1530
1508 1510 1512 1514 1515 1517 1519 1520 1521 1522 1523 1524 1525 1526 1527 1528 1528 1529 1530 1530 1530 1530 1530 1531 1531 1531 1531 1531 1531 1530 1530 1530 1530 1530 1530 1530 1530 1531 1530 1530 1529 1529 1528
1507 1508 1510 1511 1513 1515 1516 1517 1519 1520 1521 1522 1523 1524 1525 1526 1527 1527 1528 1528 1528 1529 1529 1529 1529 1529 1529 1529 1529 1528 1528 1528 1528 1528 1528 1528 1528 1529 1528 1528 1528 1527 1527
1507 1508 1509 1510 1512 1513 1514 1515 1516 1518 1519 1520 1521 1522 1523 1524 1524 1525 1526 1526 1527 1527 1527 1527 1527 1527 1527 1527 1527 1526 1526 1526 1526 1526 1526 1526 1526 1526 1526 1526 1526 1527 1525
1507 1508 1508 1509 1510 1511 1513 1514 1515 1516 1517 1518 1519 1520 1521 1522 1522 1523 1524 1524 1524 1525 1525 1525 1525 1525 1525 1525 1524 1524 1524 1524 1524 1524 1524 1524 1524 1524 1524 1524 1524 1523 1523
1506 1507 1507 1508 1509 1510 1511 1512 1513 1514 1515 1516 1517 1518 1518 1519 1520 1521 1521 1521 1522 1522 1522 1522 1522 1522 1522 1522 1522 1522 1522 1521 1521 1521 1521 1521 1521 1521 1521 1521 1521 1521 1521
1505 1506 1507 1507 1508 1509 1510 1511 1512 1513 1513 1514 1515 1515 1516 1517 1517 1518 1518 1519 1519 1520 1520 1520 1520 1519 1519 1519 1519 1519 1519 1519 1518 1518 1518 1518 1518 1518 1518 1518 1518 1518 1518
1505 1505 1506 1506 1507 1507 1508 1509 1510 1511 1511 1512 1513 1513 1514 1514 1514 1515 1516 1516 1516 1517 1517 1517 1517 1516 1516 1516 1516 1516 1516 1516 1516 1516 1516 1515 1515 1515 1515 1515 1515 1515 1515
1504 1504 1504 1505 1506 1506 1507 1507 1508 1509 1509 1510 1510 1510 1511 1512 1512 1513 1513 1514 1514 1514 1514 1514 1514 1513 1513 1513 1513 1513 1512 1512 1512 1512 1512 1512 1512 1512 1512 1512 1512 1512 1512
1503 1503 1503 1503 1504 1504 1505 1506 1506 1507 1507 1507 1507 1508 1509 1509 1510 1510 1510 1511 1511 1511 1511 1511 1510 1510 1510 1510 1509 1509 1509 1509 1509 1509 1509 1509 1509 1509 1509 1509 1508 1508 1508
1501 1502 1502 1502 1502 1502 1503 1504 1504 1505 1505 1505 1505 1505 1506 1506 1507 1507 1508 1508 1508 1507 1508 1507 1507 1507 1507 1507 1506 1506 1506 1505 1505 1505 1505 1505 1505 1505 1505 1505 1505 1505 1505
1499 1500 1500 1500 1500 1501 1501 1501 1502 1503 1503 1503 1503 1503 1503 1504 1504 1504 1504 1504 1504 1504 1504 1504 1504 1503 1503 1503 1503 1503 1502 1502 1501 1501 1501 1500 1500 1500 1501 1501 1501 1501 1501
1498 1498 1498 1498 1499 1499 1499 1499 1500 1500 1500 1500 1500 1501 1501 1501 1501 1501 1501 1501 1501 1501 1501 1501 1501 1500 1500 1500 1499 1499 1498 1498 1497 1497 1496 1496 1496 1496 1497 1496 1496 1496 1496
1496 1496 1497 1496 1496 1496 1496 1496 1497 1497 1497 1497 1498 1498 1498 1498 1498 1498 1498 1498 1498 1498 1498 1498 1498 1497 1497 1496 1496 1495 1494 1494 1493 1493 1492 1492 1492 1492 1492 1492 1491 1491 1492
1494 1494 1494 1494 1494 1494 1494 1494 1493 1494 1494 1494 1495 1495 1495 1495 1495 1495 1495 1495 1495 1495 1495 1495 1494 1494 1493 1493 1492 1492 1491 1490 1489 1488 1488 1488 1488 1487 1487 1487 1487 1486 1487
1492 1492 1492 1491 1491 1491 1491 1491 1490 1491 1491 1492 1492 1492 1492 1492 1492 1492 1492 1492 1492 1492 1491 1491 1491 1490 1490 1489 1489 1488 1487 1486 1485 1484 1484 1483 1483 1483 1483 1482 1482 1482 1483
1489 1489 1489 1489 1489 1489 1488 1488 1488 1488 1489 1489 1489 1489 1489 1489 1488 1488 1488 1488 1488 1488 1488 1487 1487 1486 1486 1485 1485 1484 1484 1483 1482 1481 1480 1479 1479 1479 1478 1478 1478 1478 1478
1486 1486 1486 1486 1486 1486 1485 1485 1485 1485 1485 1485 1485 1485 1485 1485 1485 1485 1484 1484 1485 1484 1484 1483 1483 1482 1482 1481 1481 1480 1480 1479 1478 1477 1476 1475 1475 1474 1473 1473 1473 1473 1473
1484 1484 1483 1483 1482 1483 1483 1482 1482 1482 1482 1482 1482 1482 1482 1482 1481 1481 1481 1481 1480 1480 1480 1479 1479 1478 1478 1477 1477 1476 1475 1475 1474 1473 1472 1471 1470 1470 1469 1468 1468 1468 1468
1481 1481 1480 1480 1479 1479 1479 1479 1479 1479 1479 1478 1478 1478 1478 1478 1478 1477 1477 1477 1477 1477 1476 1476 1475 1475 1474 1474 1473 1472 1471 1470 1470 1469 1468 1467 1466 1465 1464 1464 1463 1464 1464
1479 1478 1478 1477 1477 1476 1476 1476 1476 1476 1475 1475 1475 1475 1475 1474 1474 1473 1473 1473 1474 1473 1473 1473 1472 1471 1471 1470 1469 1468 1467 1466 1466 1464 1463 1462 1461 1461 1460 1459 1459 1459 1459